Preview of NWS' New Version of Forecast
This preview is not operational and should not be used for support decisions.

Regional Weather Roundup (RWR)

Issued by National Weather Service (NWS)

                            
000
ASUS45 KBOU 191410
RWRCO 

WEATHER ROUNDUP FOR COLORADO
NATIONAL WEATHER SERVICE DENVER/BOULDER CO
800 AM MDT WED JUN 19 2019

NOTE: "FAIR" INDICATES FEW OR NO CLOUDS BELOW 12000 FEET WITH NO
SIGNIFICANT WEATHER AND/OR OBSTRUCTIONS TO VISIBILITY.

COZ001>005-013-030-031-191500-
...NORTHWEST COLORADO...
  
CITY           SKY/WX    TMP DP  RH WIND       PRES   REMARKS
CRAIG          FAIR      54  47  77 NE9       30.12F                  
HAYDEN         FAIR      51  45  79 E9        30.16S                  
MEEKER         FAIR      52  46  80 CALM      30.15S                  
RANGELY        FAIR      55  51  86 CALM      30.09S                  
RABBIT EARS PA NOT AVBL                                               
STEAMBOAT SPGS FAIR      45  45 100 CALM      30.16S                  
WALDEN         PTSUNNY   50  41  71 S5        30.19F                  
$$

COZ006>008-011-191500-
...WEST CENTRAL VALLEYS...
  
CITY           SKY/WX    TMP DP  RH WIND       PRES   REMARKS
GRAND JUNCTION FAIR      61  49  64 S8        30.10R                  
MONTROSE       FAIR      54  46  74 S5        30.17S                  
EAGLE          FAIR      51  47  86 CALM      30.20F                  
RIFLE          FAIR      53  49  86 CALM      30.15F                  
DELTA          FAIR      60  46  59 E5        30.14F                  
NUCLA          FAIR      54  45  71 SE5       30.19S                  
$$

COZ017>023-064>068-191500-
...SOUTHWEST COLORADO...
  
CITY           SKY/WX    TMP DP  RH WIND       PRES   REMARKS
DURANGO        FAIR      53  41  63 CALM      30.19S                  
CORTEZ         FAIR      56  44  64 E3        30.16R                  
PAGOSA SPRINGS FAIR      51  41  67 CALM      30.25R                  
TELLURIDE      FAIR      46  41  81 SE3       30.34R                  
WOLF CREEK PAS FAIR      39  32  75 SW6       30.50R                  
$$

COZ009-010-012-014-032>034-037-058>063-191500-
...CENTRAL COLORADO...
  
CITY           SKY/WX    TMP DP  RH WIND       PRES   REMARKS
ASPEN          FAIR      48  42  80 NW3       30.23S                  
BUENA VISTA    FAIR      51  37  58 NW10      30.21S                  
COPPER MTN     FOG       37  36  93 W10       30.39R VSB<1/4          
BERTHOUD PASS  CLOUDY    32  21  64 NW36G45   30.33S WCI  16          
COTTONWOOD PAS FAIR      48  34  57 N3        30.29F                  
GUNNISON       PTSUNNY   47  43  86 N3        30.26S                  
GRANBY         PTSUNNY   47  41  81 CALM      30.22S                  
KREMMLING      NOT AVBL                                               
LEADVILLE      LGT RAIN  41  38  89 VRB3      30.29F                  
MONARCH PASS   SNOW      34  32  93 MISG      30.50S VSB<1/4          
SALIDA         FAIR      55  40  57 N5        30.27F                  
SUNLIGHT       FAIR      39  36  87 SW6       30.39F                  
WILKERSON PASS PTSUNNY   41  32  70 NW12G24   30.37S                  
$$

COZ069>075-191500-
...SAN LUIS VALLEY/SANGRE DE CRISTO MOUNTAINS...
  
CITY           SKY/WX    TMP DP  RH WIND       PRES   REMARKS
ALAMOSA        FAIR      51  39  63 SW5       30.22S                  
DEL NORTE      FAIR      51  37  60 W9        30.25R                  
LA VETA PASS   NOT AVBL                                               
SAGUACHE       FAIR      54  41  62 CALM      30.24S                  
$$

COZ035-036-038>040-191500-
...NORTHERN COLORADO FRONT RANGE...
  
CITY           SKY/WX    TMP DP  RH WIND       PRES   REMARKS
DENVER INTL AP PTSUNNY   56  50  80 S7        30.03S                  
AURORA         NOT AVBL                                               
FRONT RANGE AP PTSUNNY   57  50  77 S6        30.05F                  
ERIE MUNI ARPT FAIR      60  51  70 S8        30.06F                  
BOULDER MUN AP FAIR      64  43  45 SE3       30.00F                  
CENTENNIAL     PTSUNNY   58  46  64 S8        30.06F                  
BROOMFIELD     MOSUNNY   59  48  67 SE8       30.05S                  
FORT COLLINS     N/A     61  50  67 S9        30.00                   
LONGMONT       FAIR      64  52  65 SE5       30.02S                  
$$

COZ041-046-047-076>085-087-088-191500-
...PIKES PEAK/PALMER DIVIDE AND SOUTHERN FOOTHILLS...
  
CITY           SKY/WX    TMP DP  RH WIND       PRES   REMARKS
COLO. SPRINGS  PTSUNNY   61  42  49 N6        30.09R                  
A. F. ACADEMY  NOT AVBL                                               
SCHRIEVER AFB  NOT AVBL                                               
CHEYENNE MTN   NOT AVBL                                               
ELLICOTT         N/A    N/A N/A N/A N16       30.06R                  
FALCON         FAIR      56  42  60 N13G20    30.12S                  
FORT CARSON    NOT AVBL                                               
LIMON          FAIR      57  49  74 NW10      30.03F                  
MONUMENT HILL  CLOUDY    52  43  71 S3        30.13F                  
CANON CITY     FAIR      63  43  48 W14       30.06R                  
WALSENBURG     NOT AVBL                                               
TRINIDAD       FAIR      56  46  69 W7        30.06R                  
$$

COZ042>045-048>051-090-091-191500-
...NORTHEAST COLORADO...
  
CITY           SKY/WX    TMP DP  RH WIND       PRES   REMARKS
GREELEY ARPT   FAIR      60  52  74 SW8       29.99F                  
AKRON          FAIR      56  52  86 NW10      29.97S                  
BURLINGTON     FAIR      63  54  72 W15       29.94S                  
WRAY           FAIR      61  55  82 W9        29.91S                  
YUMA           FAIR      59  45  58 NW14      29.94R                  
STERLING       CLOUDY    55  54  94 W5        29.95R                  
HOLYOKE        FAIR      61  55  82 NW12      29.90S                  
FORT MORGAN    FAIR      58  52  82 NW3       29.98S                  
$$

COZ086-089-092>099-191500-
...SOUTHEAST COLORADO...
  
CITY           SKY/WX    TMP DP  RH WIND       PRES   REMARKS
PUEBLO         FAIR      61  54  77 CALM      30.01R                  
LA JUNTA       FAIR      61  54  77 W8        29.97S                  
LAMAR          FAIR      64  57  78 W10       29.93R                  
SPRINGFIELD      N/A     64  55  72 NW8       29.96S                  
$$